Location: Casteau
(50.5142°N, 4.0161°E)
Time: 00:20:22
(UTC+00:00)

S-56A Canister/Altair - Pass Details

Date: 07 August 2021
Orbit: 632 x 2500 km, 38.9° (Epoch: 19 September)

Event Time Altitude Azimuth Distance (km) Brightness Sun altitude
Rises 13:51:14 0° 241° (WSW) 5,069 12.4 48.0°
Reaches altitude 10° 13:54:22 10° 236° (SW) 4,301 12.3 47.6°
Maximum altitude 14:05:57 49° 167° (SSE) 2,835 11.3 46.2°
Drops below altitude 10° 14:20:00 10° 100° (E) 5,164 11.5 44.4°
Sets 14:24:10 0° 96° (E) 6,133 11.8 43.9°
